Overview Statistics Trail Chart Weather Telemetry Raw packets
 

This is the latest recevied weather packets stored in our database for station/object IU5GBO-13. If no packets are shown the sender has not sent any weather packets the latest 10 day(s).

<< 54 55 56 57 58 >>
Time Temp. Humidity Pressure Rain* Wind** Luminosity Snow
1777222652 20° C 46% 1019.2 hPa - - - -
1777222051 20° C 43% 1019.1 hPa - - - -
1777221452 20° C 43% 1019.2 hPa - - - -
1777220851 20.56° C 45% 1019.3 hPa - - - -
1777220251 20.56° C 44% 1019.3 hPa - - - -
1777219652 21.11° C 44% 1019.2 hPa - - - -
1777219052 21.11° C 40% 1019.3 hPa - - - -
1777218452 21.11° C 37% 1019.4 hPa - - - -
1777217852 21.11° C 38% 1019.3 hPa - - - -
1777217251 21.11° C 38% 1019.4 hPa - - - -
1777216652 21.67° C 37% 1019.3 hPa - - - -
1777216051 21.67° C 35% 1019.4 hPa - - - -
1777215452 21.67° C 38% 1019.3 hPa - - - -
1777214852 21.67° C 38% 1019.5 hPa - - - -
1777214251 22.22° C 38% 1019.4 hPa - - - -
1777213651 22.22° C 39% 1019.5 hPa - - - -
1777213052 22.22° C 37% 1019.5 hPa - - - -
1777212452 22.22° C 37% 1019.6 hPa - - - -
1777211851 22.22° C 37% 1019.8 hPa - - - -
1777211252 22.78° C 37% 1019.9 hPa - - - -
1777210652 22.22° C 36% 1019.8 hPa - - - -
1777210052 22.22° C 37% 1019.8 hPa - - - -
1777209452 22.22° C 37% 1019.9 hPa - - - -
1777208851 22.78° C 37% 1020 hPa - - - -
1777208251 22.22° C 40% 1020 hPa - - - -

* Rain since midnight (hover to see other rain measurements)
** Current wind speed in m/s (hover to see current wind gust speed)